STARLINK-3843 (52341 NORAD) Tracking and Keplerian Element Data
This shows tracking and keplerian element data for the satellite.
Feedback or suggestion? Click here.
Element | Value |
Catalog | 52341 |
Name | STARLINK-3843 |
Epoch Orbit | 130 |
Epoch Day | 167.08334491 |
Epoch Year | 2022 |
RAAN | 207.3736 |
Inclination | 53.2174 |
Eccentricity | 0.0001821 |
Argument of Perigee | 37.8543 |
Mean Anonmoly | 85.4615 |
Mean Motion | 15.32500321 |
Decay Rate | -0.00717264 |
L1 | 1 52341U 22045L 22167.08334491 -.00717264 00000+0 -24418-1 0 9996 |
L2 | 2 52341 53.2174 207.3736 0001821 37.8543 85.4615 15.32500321 1304 |
Live tracking and technical data element details for STARLINK-3843 (NORAD 52341). STARLINK-3843 can be tracked NOW for your location showing map with azimuth and elevation plus other details from your city location.
Track the satellite on the map from your city or location and see movement details for azimuth, elevation, latitude, longitude, range, height, and movement on the map or in text.
IsCatalogInMostPopularTable: catalog: 52341, numindb: 6
Update: records affected: 1
GetName: 52341 STARLINK-3843
Hit Count: updated at: Sat, 25 Jun 2022 03:58:18 GMT